Beidou DW 8

operational
NORAD ID: 37384 Int'l Des: 2011-013 Owner: CNSA Country: CN Constellation: BeiDou
HEOCIRCULARGSO

关于 Beidou DW 8

正在加载描述...

实时位置

正在加载3D地球...

即将过境

高度历史

Altitude vs Time

uPlot chart will show altitude changes over time

两行轨道根数

1 37384U 11013A 25258.86031081 -.00000165 00000-0 00000-0 0 9993
2 37384 62.0271 42.7514 0036046 179.6513 188.3510 1.00291885 52916
Epoch: Sep 15, 2025 • Age: 25 hours

当前状态

高度 35925.3 km
速度 3.06 km/s
星下点 15.34°N, 96.87°E
发射日期 Apr 9, 2011
运行时间 14.4 years
类型 navigation

技术详情

分类 Payload
质量 2300.00 kg
干质量 1300.00 kg
总质量 2300.00 kg
长度 3.00 m
直径 1.70 m
跨度 18.00 m
形状 Box + 2 Pan
制造商 CAST
平台类型 DFH-3
阶段状态 In Orbit
所有者/国家 CNSA/CN

大型星座

Loading constellations...